Temp
57 56 56 56 56 57 56 55 53 48 48 52 52 55 55 55 57 55 55 55 50 49 49 51 53 55 55 56 57 58 60 60 59 59 60 60 60 60
57 57 55 56 55 56 55 54 53 52 50 52 53 55 55 54 54 55 55 53 50 48 48 48 49 51 52 53 54 55 56 56 56 56 56 56 56 57
56 56 56 57 55 54 55 56 55 53 51 55 53 53 52 53 53 53 52 52 51 48 47 46 46 46 47 48 48 50 51 51 52 51 51 52 52 53
57 55 56 57 56 57 55 54 54 54 54 53 54 50 50 48 48 49 49 51 51 47 46 45 45 45 44 45 45 45 46 46 46 46 46 47 49 50
59 57 57 57 57 57 55 55 54 54 53 54 54 47 45 45 45 45 46 46 48 47 43 43 44 44 44 43 43 44 44 44 43 43 42 43 43 44
60 59 58 58 57 57 55 54 54 53 52 53 53 53 44 42 43 43 41 42 42 46 43 42 43 42 42 42 42 42 42 42 42 41 41 40 40 42
55 57 57 55 49 50 54 54 53 53 53 53 53 41 39 38 39 39 37 37 38 39 40 40 40 40 40 41 41 42 42 42 42 41 40 39 38 39
54 53 45 42 40 39 40 40 46 53 53 51 45 38 36 35 35 36 35 34 33 37 37 36 39 36 38 37 39 40 39 39 38 38 37 37 37 37
55 50 42 40 38 37 36 36 35 35 33 41 37 34 33 33 34 33 32 32 32 31 33 31 31 31 34 38 38 38 37 37 36 36 36 36 36 36
49 48 44 38 37 37 34 32 31 32 32 33 31 30 30 31 31 32 31 31 30 30 30 27 28 27 30 32 36 36 35 35 35 35 35 35 35 35
37 38 38 36 36 37 33 30 29 30 33 33 33 32 32 31 31 31 27 27 26 25 27 26 25 25 27 27 30 33 33 33 32 32 33 33 33 33
33 33 35 34 33 33 32 31 29 28 28 28 27 28 28 28 28 27 27 24 24 24 24 23 24 23 19 25 26 26 26 29 30 30 31 32 32 29
31 31 32 33 33 33 32 30 28 29 27 26 26 25 25 25 25 25 26 25 23 22 25 23 22 21 21 21 23 24 23 23 23 25 28 28 30 29
30 31 31 33 32 32 31 30 30 27 26 24 23 22 22 21 23 24 24 25 27 24 25 24 19 19 17 15 15 21 21 22 22 21 21 24 26 26
30 31 31 31 30 28 28 27 26 24 23 21 20 20 21 22 23 22 23 24 24 25 25 23 20 20 17 14 13 15 16 20 22 19 20 20 19 21
29 27 26 25 24 24 23 24 23 23 21 20 19 20 21 19 19 20 18 18 17 17 22 22 21 19 13 16 17 15 17 13 18 18 19 19 20 21
27 25 24 22 21 21 21 21 22 21 19 19 18 17 17 17 16 17 16 15 12 13 13 17 20 20 19 18 13 15 15 15 17 17 17 16 18 19
24 22 20 20 19 19 18 18 19 18 18 17 16 16 15 14 14 14 13 12 9 10 11 13 13 13 14 17 20 14 14 13 15 16 17 13 14 18
19 18 17 17 17 17 17 16 15 16 17 15 13 13 13 12 11 10 9 9 8 10 10 12 11 9 5 1 12 21 12 12 13 12 14 14 12 15
18 17 16 16 16 15 15 14 14 13 12 11 8 6 6 8 7 7 8 1 5 8 9 12 9 9 6 4 5 10 19 13 12 11 12 15 17 22
15 14 13 13 12 12 10 8 7 5 4 2 3 3 -5 3 2 4 3 1 3 7 6 7 10 13 12 12 3 6 11 19 18 14 13 12 12 15
13 12 11 10 10 8 5 6 5 3 2 -0 -11 -11 -12 -3 -1 -4 -5 -4 3 4 6 9 11 10 8 8 5 5 8 11 16 20 21 19 14 11
8 8 7 6 5 3 4 0 -1 -8 -2 -3 -3 -2 -14 -6 -0 -1 -2 1 3 3 4 4 6 8 7 7 6 5 5 7 11 12 16 23 25 25
MSLP
1017.09 1017.24 1017.51 1017.75 1018.30 1018.73 1019.41 1019.55 1019.80 1020.49 1020.23 1019.72 1019.81 1019.09 1019.16 1019.21 1018.79 1019.21 1019.41 1019.24 1019.39 1019.57 1019.89 1020.05 1020.20 1020.27 1020.26 1020.38 1020.45 1020.52 1020.59 1020.73 1020.78 1021.08 1021.14 1021.20 1021.41 1021.56
1016.64 1016.97 1017.27 1017.57 1017.87 1018.24 1018.62 1019.04 1019.65 1019.58 1019.56 1019.06 1018.81 1018.49 1018.42 1018.55 1018.38 1018.50 1018.49 1018.59 1018.88 1019.06 1019.21 1019.43 1019.55 1019.80 1019.85 1019.73 1019.73 1019.78 1019.91 1020.08 1020.12 1020.34 1020.56 1020.77 1020.99 1021.13
1016.05 1016.67 1016.84 1017.02 1017.47 1017.79 1018.14 1018.33 1019.08 1019.19 1019.23 1018.30 1018.35 1018.06 1018.38 1018.26 1018.07 1018.12 1018.35 1018.54 1018.68 1018.70 1018.87 1018.93 1019.14 1019.21 1019.27 1019.33 1019.34 1019.51 1019.62 1019.74 1019.86 1020.02 1020.41 1020.75 1020.85 1020.84
1015.40 1015.91 1016.15 1016.41 1016.77 1017.05 1017.61 1017.91 1018.00 1017.95 1018.48 1018.08 1018.04 1017.94 1018.07 1018.18 1018.29 1018.41 1018.54 1018.52 1018.75 1018.94 1018.90 1019.05 1019.29 1019.04 1019.17 1019.40 1019.35 1019.43 1019.49 1019.81 1020.22 1020.53 1020.65 1020.55 1020.77 1020.58
1014.90 1015.34 1015.54 1015.99 1016.45 1016.54 1016.78 1017.06 1017.08 1017.34 1017.69 1017.87 1017.33 1017.53 1017.98 1018.25 1018.41 1018.59 1018.68 1018.86 1019.01 1019.27 1019.56 1019.62 1019.63 1019.52 1019.29 1019.48 1019.64 1019.67 1019.81 1019.80 1020.33 1020.53 1020.56 1020.75 1020.59 1020.53
1014.23 1014.34 1014.68 1015.30 1015.51 1015.67 1015.98 1016.17 1016.33 1016.76 1016.95 1017.18 1017.33 1017.51 1017.84 1018.06 1018.16 1018.59 1019.13 1019.44 1019.35 1019.33 1019.90 1020.04 1020.33 1020.14 1020.16 1020.26 1020.26 1020.38 1020.39 1020.38 1020.52 1020.58 1020.52 1020.52 1020.42 1020.53
1013.68 1013.94 1014.34 1014.71 1014.93 1015.11 1015.44 1015.55 1015.77 1016.06 1016.28 1016.47 1016.75 1017.40 1017.75 1018.14 1018.18 1018.28 1018.76 1019.16 1020.21 1020.08 1019.83 1020.50 1020.59 1020.28 1020.34 1020.54 1020.57 1020.73 1020.67 1020.64 1020.54 1020.58 1020.63 1020.71 1020.71 1020.60
1013.09 1013.41 1013.81 1014.21 1014.54 1014.70 1014.97 1015.23 1015.35 1015.60 1015.57 1015.77 1016.47 1017.01 1017.33 1017.69 1018.09 1018.27 1019.13 1019.66 1019.75 1020.17 1020.34 1020.72 1020.85 1020.95 1020.96 1021.04 1021.06 1020.95 1020.96 1020.89 1020.86 1020.85 1020.73 1020.73 1020.63 1020.36
1012.30 1012.91 1013.75 1014.14 1014.72 1015.23 1015.83 1016.00 1016.16 1016.03 1015.75 1015.56 1016.46 1017.35 1018.16 1018.77 1018.84 1018.85 1019.11 1019.83 1020.50 1021.22 1020.73 1021.25 1021.49 1021.72 1021.97 1021.55 1021.32 1021.27 1021.32 1021.26 1021.16 1020.92 1020.65 1020.55 1020.37 1020.16
1011.70 1012.17 1012.88 1013.85 1014.54 1015.20 1015.87 1016.52 1017.09 1017.19 1017.09 1016.88 1017.52 1018.50 1018.68 1019.83 1019.65 1020.21 1020.92 1020.43 1021.55 1022.22 1022.25 1022.22 1022.60 1022.35 1022.20 1022.07 1021.86 1021.77 1021.58 1021.32 1020.93 1020.54 1020.36 1020.14 1019.77 1019.48
1012.20 1012.46 1012.91 1013.75 1014.52 1015.01 1015.44 1016.49 1017.59 1018.28 1018.05 1018.63 1018.87 1019.08 1019.23 1020.45 1020.61 1020.92 1021.75 1021.35 1021.95 1022.11 1023.32 1023.25 1023.34 1022.86 1022.54 1022.44 1022.47 1022.13 1021.92 1021.51 1021.07 1020.86 1020.51 1020.17 1019.80 1019.33
1012.73 1013.11 1013.46 1013.97 1014.90 1015.44 1016.04 1017.16 1018.16 1019.45 1019.63 1019.30 1019.96 1020.46 1020.72 1021.47 1022.05 1022.13 1021.73 1022.00 1022.72 1022.93 1024.13 1023.65 1023.44 1023.30 1023.00 1022.55 1022.50 1022.28 1022.21 1022.09 1021.74 1021.25 1020.50 1020.02 1019.47 1019.03
1013.00 1013.82 1014.53 1014.82 1015.36 1015.94 1016.71 1017.43 1018.22 1019.23 1019.81 1020.76 1021.95 1021.45 1022.07 1022.89 1022.43 1023.77 1023.67 1023.35 1023.39 1024.29 1024.75 1024.24 1023.89 1023.79 1023.77 1023.28 1022.93 1022.65 1022.82 1022.27 1021.96 1021.56 1020.69 1020.12 1019.72 1019.38
1013.41 1014.36 1015.22 1015.91 1016.69 1017.50 1018.06 1018.63 1019.23 1019.94 1019.73 1020.68 1021.82 1022.92 1023.65 1023.49 1023.64 1023.66 1024.26 1024.50 1024.59 1024.76 1025.00 1025.38 1024.82 1024.45 1024.61 1023.87 1023.16 1023.03 1022.83 1022.37 1021.86 1021.32 1020.93 1020.15 1019.73 1019.35
1014.53 1015.10 1016.12 1016.39 1016.41 1018.57 1019.42 1020.58 1020.19 1020.60 1021.25 1022.55 1022.69 1023.46 1024.35 1024.23 1024.39 1024.44 1024.85 1025.21 1025.53 1025.33 1025.42 1025.55 1025.42 1025.24 1024.87 1024.52 1024.09 1023.45 1022.57 1021.63 1021.41 1021.38 1020.61 1019.88 1019.24 1018.48
1014.95 1016.09 1016.77 1019.05 1017.77 1019.10 1020.15 1020.86 1021.98 1022.57 1021.44 1023.74 1024.33 1024.21 1024.45 1024.81 1025.03 1025.61 1025.78 1025.76 1025.77 1025.71 1025.74 1025.94 1025.45 1025.14 1025.05 1024.86 1023.95 1023.14 1022.91 1022.42 1021.43 1021.11 1020.21 1019.16 1018.41 1017.74
1015.45 1016.61 1017.98 1019.31 1020.94 1022.04 1021.51 1022.12 1023.48 1023.60 1023.66 1024.33 1025.35 1025.03 1025.51 1025.76 1025.99 1025.95 1026.41 1026.50 1026.53 1026.32 1026.13 1025.54 1025.27 1025.31 1024.64 1024.12 1023.50 1023.28 1022.62 1021.84 1021.37 1020.31 1019.51 1018.19 1017.20 1016.60
1018.67 1018.56 1019.67 1020.95 1022.20 1023.08 1023.30 1023.55 1024.16 1024.58 1025.05 1025.62 1025.80 1026.34 1026.80 1026.59 1026.72 1026.94 1027.12 1027.05 1027.20 1026.91 1026.72 1026.33 1025.81 1025.10 1024.32 1023.70 1023.28 1022.82 1022.22 1021.69 1020.96 1019.92 1019.13 1018.08 1016.40 1015.61
1019.44 1021.50 1021.86 1022.20 1023.05 1023.89 1024.08 1024.93 1025.60 1025.94 1026.34 1026.64 1026.79 1027.37 1027.66 1027.75 1027.75 1027.95 1027.70 1027.60 1027.67 1027.72 1027.29 1026.66 1026.37 1026.24 1025.73 1024.99 1023.50 1022.76 1022.29 1021.52 1020.37 1019.21 1018.30 1017.72 1016.50 1014.96
1022.02 1022.50 1023.25 1023.39 1024.10 1024.83 1025.24 1025.75 1026.78 1027.08 1027.43 1028.15 1028.27 1028.20 1028.42 1028.70 1028.61 1028.64 1028.65 1028.55 1028.33 1028.04 1027.43 1026.89 1026.65 1026.43 1026.00 1025.33 1024.28 1022.80 1022.39 1021.26 1020.22 1018.86 1017.56 1016.75 1015.76 1014.43
1023.41 1024.24 1024.78 1025.20 1025.84 1026.13 1026.58 1027.26 1027.95 1028.40 1028.72 1028.81 1029.51 1029.63 1029.38 1029.18 1029.63 1029.62 1029.33 1028.99 1028.81 1028.33 1027.74 1026.94 1026.65 1026.11 1025.63 1025.05 1024.66 1022.87 1020.85 1020.58 1019.91 1018.74 1017.28 1016.13 1014.82 1013.20
1025.25 1025.62 1026.17 1026.65 1027.21 1027.50 1028.10 1028.36 1028.61 1029.29 1029.54 1030.12 1030.37 1030.21 1030.39 1030.30 1030.28 1030.25 1030.01 1029.67 1029.00 1028.51 1027.82 1027.04 1026.45 1026.11 1025.66 1025.05 1024.25 1023.22 1021.91 1019.47 1018.34 1017.22 1016.22 1015.56 1014.95 1014.12
1026.63 1027.10 1027.64 1028.21 1028.54 1028.70 1028.87 1029.31 1029.55 1029.93 1030.31 1030.68 1030.96 1031.16 1031.09 1030.97 1030.83 1030.50 1030.33 1029.70 1029.11 1028.55 1028.01 1027.39 1026.88 1026.33 1025.66 1025.07 1024.07 1023.39 1022.19 1020.23 1017.96 1015.81 1013.92 1013.40 1012.78 1012.63
Wind_Speed
6 6 4 3 4 4 4 4 5 4 4 4 4 6 6 7 10 6 10 14 16 17 16 18 21 21 22 23 23 26 26 24 20 22 22 17 17 18
4 5 5 3 4 4 4 3 3 4 5 5 6 5 4 4 6 7 9 9 11 12 13 13 15 17 18 19 21 20 19 18 17 17 12 12 14 16
6 8 7 6 4 4 4 5 9 5 6 5 4 4 5 6 5 4 3 3 4 6 9 10 9 8 7 7 6 9 10 8 6 5 6 9 12 15
7 6 8 4 7 9 5 8 8 6 7 14 6 4 6 1 1 1 1 0 2 5 4 3 4 3 4 3 2 2 1 2 2 4 5 7 12 13
12 10 10 9 12 10 10 9 6 5 7 8 10 2 1 2 2 2 2 3 4 8 8 9 8 8 9 8 7 6 4 2 2 5 8 9 11 16
13 12 12 12 13 11 9 9 7 6 6 8 8 7 3 2 2 2 1 3 2 5 8 8 8 13 14 12 12 11 9 8 8 9 10 11 12 14
7 9 10 10 8 8 7 9 9 8 8 8 9 3 3 2 3 2 3 4 2 3 3 3 2 2 3 6 8 11 10 11 12 15 15 16 15 15
11 9 7 10 8 8 6 1 4 10 12 8 4 5 4 3 3 2 3 1 2 5 2 2 2 5 5 5 13 10 14 14 14 14 15 16 17 17
13 8 5 3 7 9 12 14 15 16 8 2 4 3 4 4 4 2 3 3 3 4 3 2 4 3 4 6 10 10 12 14 16 18 18 18 17 18
7 9 10 9 8 10 10 11 12 14 11 10 13 11 11 8 7 4 3 5 6 7 9 3 3 3 3 4 6 11 13 17 18 18 18 19 19 20
4 5 7 9 14 18 14 16 14 13 21 27 27 26 27 23 15 6 6 4 3 4 7 3 2 4 2 2 4 14 19 20 19 20 21 22 22 22
7 8 12 14 17 16 14 12 13 10 10 12 12 15 17 17 18 10 6 5 2 2 5 3 3 4 4 1 4 6 6 13 20 22 21 21 21 9
8 9 9 22 23 23 18 12 13 11 13 10 9 8 9 9 9 9 9 7 5 4 7 4 3 3 1 5 3 4 6 8 9 10 15 18 21 20
12 11 15 26 27 24 17 23 20 11 8 9 9 7 6 7 7 7 9 7 7 6 7 7 3 5 4 4 4 6 7 7 7 4 7 14 19 22
13 22 28 28 29 21 23 20 13 8 9 8 8 7 6 7 8 8 8 7 7 7 7 8 5 5 4 4 6 7 10 6 6 8 10 8 10 9
19 14 18 16 20 15 12 13 8 6 9 7 6 6 6 6 6 6 4 5 4 5 7 7 7 7 3 6 7 9 8 7 8 9 10 11 10 9
17 13 12 11 9 8 9 9 7 7 8 7 5 6 6 6 5 6 6 5 4 5 5 5 8 8 6 9 7 7 9 9 9 11 12 12 11 10
11 10 11 9 8 7 7 8 7 8 7 6 6 5 5 5 5 5 5 4 3 4 4 6 7 8 7 3 8 7 8 9 11 12 11 11 15 11
11 8 9 9 8 7 7 7 7 6 7 6 6 5 4 5 5 4 4 4 4 4 3 4 5 5 7 8 7 9 11 12 12 12 10 11 14 15
9 8 8 8 8 7 7 7 6 5 6 5 5 5 4 3 3 4 4 2 2 4 5 4 4 5 6 6 10 13 17 12 11 13 13 12 13 26
8 8 7 7 7 7 6 6 5 4 4 4 4 4 3 3 3 2 3 4 3 5 6 5 6 11 7 7 7 10 10 18 18 14 14 12 12 12
7 8 7 7 6 6 4 5 6 5 5 4 2 3 3 1 2 2 2 2 3 4 5 6 8 7 6 7 10 15 14 13 18 21 22 18 8 6
7 7 6 5 4 4 4 4 5 3 3 3 2 2 2 2 2 2 3 3 4 5 6 7 6 6 7 8 11 11 18 18 13 17 14 16 15 21
Wind_Direction
205 185 187 178 179 166 187 184 174 213 241 236 240 210 213 219 233 220 228 239 225 225 228 229 233 234 233 239 243 248 248 246 247 259 257 257 267 271
186 184 192 191 198 186 186 182 225 210 250 183 235 226 228 236 226 225 231 230 235 227 230 233 235 243 246 245 247 251 251 249 250 253 258 268 268 270
167 189 203 201 204 194 197 210 228 183 240 266 240 228 220 230 252 239 248 245 270 270 260 259 252 246 249 253 242 246 244 242 239 251 271 273 272 275
213 189 220 198 252 247 223 221 216 205 215 258 241 231 218 211 182 198 248 194 297 28 22 335 278 243 249 249 203 216 255 308 13 354 327 302 293 291
217 207 222 210 225 232 230 228 220 216 214 237 266 157 163 191 147 89 89 81 66 64 69 62 61 71 78 74 62 48 35 62 18 324 311 315 313 305
226 222 227 219 223 223 224 226 230 227 219 231 242 251 195 158 109 154 116 18 80 86 71 65 62 62 56 50 42 28 16 1 340 326 311 292 288 286
217 223 228 227 222 231 225 231 226 226 231 236 249 173 182 180 203 156 135 153 90 26 58 50 12 54 63 48 26 1 360 7 11 12 16 16 8 352
214 214 174 155 159 152 163 177 263 238 241 239 218 190 181 163 146 148 128 173 150 40 51 26 3 49 28 40 19 43 54 48 35 20 5 352 342 336
228 209 181 144 135 112 92 78 59 48 32 148 123 73 68 18 24 64 74 67 49 14 33 104 17 49 1 353 8 58 39 26 10 358 350 340 331 326
219 190 186 159 148 139 113 87 69 54 47 73 79 71 70 45 63 77 351 88 96 49 10 29 9 0 321 341 55 27 20 4 357 352 343 333 325 320
92 99 136 140 143 140 123 112 98 91 82 80 79 79 74 59 55 60 41 53 48 70 20 334 14 322 314 354 353 7 1 358 359 349 338 332 327 321
96 87 99 116 111 114 110 109 97 83 80 84 79 70 64 65 55 47 63 71 51 75 17 345 11 22 323 326 347 8 349 353 338 325 321 321 322 316
110 100 97 108 110 103 95 99 103 110 96 82 65 68 65 61 66 46 41 43 49 57 17 359 15 5 290 312 329 313 353 330 314 310 325 339 330 325
105 104 104 98 92 89 88 104 102 97 95 95 81 61 65 68 65 66 50 47 47 64 41 18 0 19 343 301 309 333 318 310 296 313 325 320 311 308
96 102 97 98 97 80 80 67 70 74 82 69 84 87 70 62 55 53 44 47 56 40 33 23 14 350 342 307 292 302 315 311 298 325 305 302 298 296
104 92 84 75 78 76 76 68 65 59 84 91 84 85 79 72 60 51 49 27 42 27 17 9 4 355 313 297 300 304 304 303 312 305 302 300 295 289
107 96 89 87 74 73 81 78 73 68 66 79 76 71 71 74 63 53 42 39 40 356 344 355 351 332 306 307 301 299 302 305 303 307 306 300 297 294
62 78 89 87 86 85 77 77 72 80 80 78 70 75 69 66 69 53 41 35 11 352 340 337 338 343 341 298 278 310 300 298 306 306 307 302 298 297
84 78 79 88 91 85 85 81 75 68 76 71 69 61 58 59 53 42 32 23 358 333 303 331 343 342 329 311 280 299 318 303 305 302 303 294 290 295
77 78 81 81 80 87 84 82 71 68 72 72 65 60 53 61 43 30 19 339 318 322 325 328 331 330 321 310 307 297 297 299 303 299 299 290 283 288
73 75 65 69 73 72 75 81 85 73 71 68 48 58 30 57 33 16 358 357 322 326 319 321 317 322 311 302 305 295 300 306 300 300 301 296 306 308
71 72 67 68 77 83 75 85 86 80 73 67 50 54 23 55 43 359 341 301 315 299 300 315 330 326 316 314 312 309 311 309 311 303 299 281 272 291
64 72 65 63 64 59 76 73 80 73 76 80 65 51 33 20 324 278 265 302 328 330 328 322 325 314 324 319 312 307 310 312 321 329 323 313 273 245